{"data":{"norad_id":62182,"intl_designator":"2024-225V","name":"STARLINK-32565","alt_names":[],"object_type":"PAYLOAD","status":"ACTIVE","operator":null,"country":"US","launch_date":"2024-11-30","launch_site_code":"AFWTR","launch_vehicle":null,"mission":null,"orbit_class":"UNKNOWN","rcs_meters":null,"size_class":null,"mass_kg":null,"dimensions":null,"purposes":["comms"],"wikipedia_slug":null,"has_3d_model":false,"image_url":null,"decayed_at":null,"tle_current":{"epoch":"2026-09-21T18:55:45.614496Z","epoch_age_seconds":66340,"freshness":"FRESH","line1":"1 62182U 24225V   26264.78872239  .00001858  00000+0  16343-3 0  9991","line2":"2 62182  70.0019  29.8272 0002687 271.2532  88.8319 14.98336520 99256","mean_motion":14.9833652,"eccentricity":0.0002687,"inclination_deg":70.0019,"raan_deg":29.8272,"arg_perigee_deg":271.2532,"mean_anomaly_deg":88.8319,"bstar":0.00016343,"rev_number":9925,"period_min":96.106580916816,"perigee_km":570.16821704323,"apogee_km":573.9032398675,"semimajor_km":6950.1727284554,"source":"CELESTRAK","updated_at":"2026-09-22T09:00:49.538093Z"}}}